Change the Weather History Date:

Friday, March 7, 2014

  Actual Average (KLJF) Record (KLJF)
Temperature  
Mean Temperature 22 °F -  
Max Temperature 31 °F 36 °F 73 °F (1987)
Min Temperature 14 °F 13 °F -18 °F (1967)
Degree Days  
Heating Degree Days 42    
Moisture  
Dew Point 19 °F    
Average Humidity 83    
Maximum Humidity 96    
Minimum Humidity 72    
Precipitation  
Precipitation 0.00 in - - ()
Sea Level Pressure  
Sea Level Pressure 29.95 in    
Wind  
Wind Speed 7 mph (NW)    
Max Wind Speed 21 mph    
Max Gust Speed 31 mph    
Visibility 7 miles    
Events      
Averages and records for this station are not official NWS values.
T = Trace of Precipitation, MM = Missing Value Source: NWS Daily Summary

Daily Weather History Graph

Daily Weather History Graph

Search for Another Location

Airport or City:

Trip Planner

Search our weather history database for the weather conditions in past years. The results will help you decide how hot, cold, wet, or windy it might be!

Date:

Astronomy

Mar. 07, 2014 Rise Set
Actual Time 6:46 AM CST 6:14 PM CST
Civil Twilight 6:16 AM CST 6:43 PM CST
Nautical Twilight 5:42 AM CST 7:18 PM CST
Astronomical Twilight 5:08 AM CST 7:52 PM CST
Moon 10:22 AM CST (3/7) 12:37 AM CST (3/7)
Length of Visible Light 12h 27m
Length of Day
11h 28m
Waxing Crescent, 42% of the Moon is Illuminated
Mar 7
Waxing Crescent
Mar 8
First Quarter
Mar 16
Full
Mar 23
Last Quarter
Mar 30
New

Hourly Weather History & Observations

Time (CST) Temp. Windchill Dew Point Humidity Pressure Visibility Wind Dir Wind Speed Gust Speed Precip Events Conditions
12:09 AM 26.1 °F 21.9 °F 23.9 °F 92% 29.72 in 4.0 mi SSE 3.5 mph - N/A   Mostly Cloudy
12:32 AM 26.2 °F - 23.9 °F 91% 29.74 in 4.0 mi Calm Calm - N/A   Mostly Cloudy
12:52 AM 26.1 °F - 23.9 °F 92% 29.74 in 4.0 mi Calm Calm - N/A   Scattered Clouds
1:12 AM 25.7 °F - 23.9 °F 93% 29.74 in 4.0 mi Calm Calm - N/A   Scattered Clouds
1:31 AM 25.7 °F - 23.7 °F 92% 29.74 in 4.0 mi Calm Calm - N/A   Scattered Clouds
1:52 AM 25.7 °F - 23.9 °F 93% 29.74 in 4.0 mi Calm Calm - N/A   Mostly Cloudy
2:12 AM 26.1 °F - 23.9 °F 92% 29.73 in 4.0 mi Calm Calm - N/A   Overcast
2:32 AM 26.2 °F - 24.3 °F 92% 29.74 in 4.0 mi Calm Calm - N/A   Overcast
2:52 AM 26.4 °F - 24.4 °F 92% 29.74 in 4.0 mi Calm Calm - N/A   Overcast
3:11 AM 26.4 °F - 24.6 °F 93% 29.74 in 4.0 mi Calm Calm - N/A   Overcast
3:32 AM 26.2 °F - 24.4 °F 93% 29.74 in 3.0 mi Calm Calm - N/A   Overcast
3:52 AM 25.7 °F - 24.3 °F 94% 29.74 in 3.0 mi Calm Calm - N/A   Mostly Cloudy
4:12 AM 25.5 °F - 23.7 °F 93% 29.74 in 3.0 mi Calm Calm - N/A   Overcast
4:32 AM 25.7 °F - 24.3 °F 94% 29.74 in 2.5 mi Calm Calm - N/A   Overcast
4:52 AM 26.4 °F - 24.8 °F 94% 29.75 in 3.0 mi Calm Calm - N/A   Overcast
5:12 AM 26.6 °F - 25.3 °F 95% 29.75 in 2.5 mi Calm Calm - N/A   Overcast
5:32 AM 27.5 °F - 26.2 °F 95% 29.77 in 2.5 mi Calm Calm - N/A   Overcast
5:52 AM 28.2 °F - 26.6 °F 94% 29.77 in 2.5 mi Calm Calm - N/A   Overcast
6:12 AM 28.9 °F - 27.5 °F 94% 29.79 in 3.0 mi Calm Calm - N/A   Overcast
6:31 AM 29.1 °F - 27.5 °F 94% 29.79 in 2.5 mi Calm Calm - N/A   Overcast
6:52 AM 29.8 °F 20.9 °F 28.4 °F 94% 29.81 in 2.5 mi NW 10.4 mph - N/A   Overcast
7:12 AM 31.1 °F 21.4 °F 30.0 °F 96% 29.82 in 1.0 mi NW 12.7 mph 18.4 mph N/A   Overcast
7:31 AM 29.8 °F 18.0 °F 26.8 °F 88% 29.84 in 4.0 mi NW 17.3 mph 24.2 mph N/A   Overcast
7:52 AM 28.4 °F 17.5 °F 24.4 °F 85% 29.84 in 5.0 mi NW 13.8 mph 23.0 mph N/A   Mostly Cloudy
8:12 AM 27.5 °F 14.6 °F 23.2 °F 84% 29.85 in 5.0 mi NW 18.4 mph 25.3 mph N/A   Overcast
8:32 AM 25.9 °F 13.8 °F 21.4 °F 83% 29.86 in 5.0 mi NW 15.0 mph 24.2 mph N/A   Haze
8:52 AM 25.3 °F 13.1 °F 20.5 °F 82% 29.87 in 5.0 mi NW 15.0 mph 21.9 mph N/A   Haze
9:12 AM 25.2 °F 13.3 °F 20.1 °F 81% 29.89 in 7.0 mi NW 13.8 mph 20.7 mph N/A   Overcast
9:32 AM 24.8 °F 11.5 °F 19.4 °F 80% 29.90 in 7.0 mi NW 17.3 mph 20.7 mph N/A   Overcast
9:52 AM 24.3 °F 11.2 °F 18.9 °F 80% 29.91 in 7.0 mi NW 16.1 mph 26.5 mph N/A   Mostly Cloudy
10:11 AM 23.5 °F 8.7 °F 18.3 °F 80% 29.92 in 7.0 mi NW 20.7 mph 26.5 mph N/A   Mostly Cloudy
10:32 AM 23.0 °F 8.0 °F 17.8 °F 80% 29.92 in 7.0 mi NW 20.7 mph 31.1 mph N/A   Overcast
10:52 AM 23.2 °F 9.8 °F 17.6 °F 79% 29.93 in 10.0 mi NW 16.1 mph 25.3 mph N/A   Overcast
11:12 AM 22.6 °F 8.3 °F 17.2 °F 80% 29.94 in 10.0 mi NW 18.4 mph 25.3 mph N/A   Overcast
11:32 AM 23.4 °F 10.1 °F 17.4 °F 78% 29.94 in 10.0 mi NW 16.1 mph 25.3 mph N/A   Overcast
11:52 AM 23.2 °F 10.8 °F 17.4 °F 79% 29.95 in 10.0 mi NW 13.8 mph 24.2 mph N/A   Overcast
12:12 PM 22.8 °F 9.9 °F 17.2 °F 79% 29.96 in 10.0 mi NW 15.0 mph 21.9 mph N/A   Overcast
12:32 PM 23.2 °F 8.6 °F 17.2 °F 78% 29.97 in 10.0 mi NW 19.6 mph 25.3 mph N/A   Overcast
12:52 PM 23.2 °F 9.4 °F 16.3 °F 75% 29.98 in 10.0 mi NW 17.3 mph 26.5 mph N/A   Mostly Cloudy
1:12 PM 23.0 °F 9.2 °F 16.5 °F 76% 29.98 in 10.0 mi NW 17.3 mph 25.3 mph N/A   Mostly Cloudy
1:32 PM 23.7 °F 10.5 °F 16.7 °F 75% 29.98 in 10.0 mi NW 16.1 mph 21.9 mph N/A   Overcast
1:52 PM 23.7 °F 9.7 °F 16.7 °F 75% 29.98 in 10.0 mi NW 18.4 mph 24.2 mph N/A   Mostly Cloudy
2:12 PM 23.9 °F 10.3 °F 16.5 °F 73% 29.99 in 10.0 mi NW 17.3 mph 24.2 mph N/A   Scattered Clouds
2:32 PM 23.9 °F 10.8 °F 16.7 °F 74% 30.00 in 10.0 mi NW 16.1 mph 25.3 mph N/A   Overcast
2:52 PM 23.9 °F 10.8 °F 16.7 °F 74% 30.00 in 10.0 mi NW 16.1 mph 23.0 mph N/A   Overcast
3:12 PM 25.0 °F 13.1 °F 17.2 °F 72% 30.01 in 10.0 mi NW 13.8 mph 20.7 mph N/A   Overcast
3:32 PM 25.3 °F 13.6 °F 17.4 °F 72% 30.02 in 10.0 mi NW 13.8 mph 19.6 mph N/A   Mostly Cloudy
3:52 PM 24.4 °F 11.5 °F 16.9 °F 73% 30.03 in 10.0 mi NW 16.1 mph 21.9 mph N/A   Overcast
4:12 PM 24.4 °F 11.5 °F 17.2 °F 74% 30.04 in 10.0 mi NW 16.1 mph 21.9 mph N/A   Overcast
4:32 PM 23.9 °F 11.7 °F 16.7 °F 74% 30.05 in 10.0 mi NW 13.8 mph 20.7 mph N/A   Overcast
4:52 PM 23.9 °F 12.3 °F 16.7 °F 74% 30.05 in 10.0 mi NW 12.7 mph 18.4 mph N/A   Overcast
5:12 PM 23.9 °F 12.3 °F 17.1 °F 75% 30.07 in 10.0 mi NW 12.7 mph 17.3 mph N/A   Overcast
5:32 PM 23.9 °F 12.9 °F 17.1 °F 75% 30.08 in 10.0 mi NW 11.5 mph 19.6 mph N/A   Overcast
5:52 PM 23.4 °F 12.2 °F 16.9 °F 76% 30.09 in 10.0 mi NW 11.5 mph 19.6 mph N/A   Overcast
6:12 PM 22.8 °F 11.5 °F 16.5 °F 77% 30.10 in 10.0 mi NW 11.5 mph 16.1 mph N/A   Overcast
6:32 PM 22.1 °F 11.3 °F 16.0 °F 77% 30.11 in 10.0 mi NW 10.4 mph 18.4 mph N/A   Overcast
6:52 PM 21.2 °F 10.9 °F 15.1 °F 77% 30.13 in 10.0 mi NW 9.2 mph - N/A   Scattered Clouds
7:11 PM 20.1 °F 9.5 °F 14.7 °F 80% 30.14 in 10.0 mi NW 9.2 mph - N/A   Scattered Clouds
7:32 PM 19.0 °F - 14.0 °F 81% 30.15 in 10.0 mi Calm Calm - N/A   Clear
7:52 PM 18.5 °F - 13.8 °F 82% 30.15 in 10.0 mi Calm Calm - N/A   Clear
8:12 PM 18.3 °F 9.1 °F 13.5 °F 81% 30.16 in 10.0 mi NW 6.9 mph - N/A   Clear
8:31 PM 17.8 °F 5.9 °F 13.1 °F 82% 30.16 in 10.0 mi NW 10.4 mph - N/A   Clear
8:52 PM 17.6 °F 6.4 °F 12.7 °F 81% 30.16 in 10.0 mi NW 9.2 mph - N/A   Clear
9:12 PM 17.1 °F 6.6 °F 12.2 °F 81% 30.17 in 10.0 mi NW 8.1 mph - N/A   Clear
9:32 PM 16.3 °F 7.8 °F 11.7 °F 82% 30.18 in 10.0 mi NW 5.8 mph - N/A   Clear
9:52 PM 16.2 °F 4.7 °F 11.5 °F 82% 30.18 in 10.0 mi NW 9.2 mph - N/A   Clear
10:12 PM 16.7 °F 6.2 °F 11.7 °F 81% 30.19 in 10.0 mi NNW 8.1 mph - N/A   Clear
10:32 PM 16.2 °F 7.6 °F 11.1 °F 81% 30.20 in 10.0 mi NNW 5.8 mph - N/A   Clear
10:52 PM 16.2 °F 7.6 °F 10.8 °F 79% 30.20 in 10.0 mi North 5.8 mph - N/A   Clear
11:12 PM 15.8 °F 7.2 °F 10.4 °F 79% 30.21 in 10.0 mi NNW 5.8 mph - N/A   Clear
11:32 PM 14.9 °F 9.2 °F 9.5 °F 79% 30.21 in 10.0 mi NNW 3.5 mph - N/A   Clear
11:52 PM 14.2 °F - 9.3 °F 81% 30.22 in 10.0 mi Calm Calm - N/A   Clear